Location: D�derode
(51.8092°N, 10.1065°E)
Time: 21:29:51
(UTC+00:00)

NOAA 12 - Pass Details

Date: 01 December 2020
Orbit: 795 x 815 km, 98.5° (Epoch: 24 January)

Event Time Altitude Azimuth Distance (km) Brightness Sun altitude
Rises 16:12:46 0° 153° (SSE) 3,331 7.3 -8.9°
Reaches altitude 10° 16:15:06 10° 151° (SSE) 2,402 6.5 -9.2°
Maximum altitude 16:20:22 67° 70° (ENE) 885 4.1 -10.0°
Drops below altitude 10° 16:25:39 10° 349° (N) 2,409 6.5 -10.7°
Sets 16:28:01 0° 347° (NNW) 3,342 7.2 -11.1°
